Change the Weather History Date:

Thursday, December 26, 2013

  Actual Average Record
Temperature  
Mean Temperature 45 °F -  
Max Temperature 57 °F 34 °F - ()
Min Temperature 33 °F 23 °F - ()
Degree Days  
Heating Degree Days 20    
Moisture  
Dew Point 34 °F    
Average Humidity 60    
Maximum Humidity 87    
Minimum Humidity 34    
Precipitation  
Precipitation 0.00 in 0.05 in - ()
Sea Level Pressure  
Sea Level Pressure 29.76 in    
Wind  
Wind Speed 7 mph ()    
Max Wind Speed 12 mph    
Max Gust Speed -    
Visibility 14.8 miles    
Events      
T = Trace of Precipitation, MM = Missing Value Source: Averaged Metar Reports

Daily Weather History Graph

Daily Weather History Graph

Search for Another Location

Airport or City:

Trip Planner

Search our weather history database for the weather conditions in past years. The results will help you decide how hot, cold, wet, or windy it might be!

Date:

Astronomy

Dec. 26, 2013 Rise Set
Actual Time 7:20 AM CET 3:47 PM CET
Civil Twilight 6:44 AM CET 4:23 PM CET
Nautical Twilight 6:05 AM CET 5:03 PM CET
Astronomical Twilight 5:27 AM CET 5:40 PM CET
Moon 12:09 AM CET (12/26) 11:31 AM CET (12/26)
Length of Visible Light 9h 39m
Length of Day
8h 27m
Last Quarter, 41% of the Moon is Illuminated
Dec 26
Last Quarter
Jan 1
New
Jan 8
First Quarter
Jan 16
Full
Jan 24
Last Quarter

Hourly Weather History & Observations

Time (CET) Temp. Windchill Dew Point Humidity Pressure Visibility Wind Dir Wind Speed Gust Speed Precip Events Conditions
12:00 AM 40 °F - 32 °F 63% 29.87 in - SSE 8.9 mph - -  
1:00 AM 39 °F - 31 °F 64% 29.87 in - SE 4.5 mph - -  
2:00 AM 38 °F - 31 °F 66% 29.86 in - ESE 2.2 mph - -  
3:00 AM 38 °F - 31 °F 66% 29.85 in - ESE 4.5 mph - -  
4:00 AM 36 °F - 30 °F 71% 29.84 in - ENE 6.7 mph - -  
5:00 AM 35 °F - 29 °F 72% 29.83 in - East 4.5 mph - -  
5:15 AM 33.8 °F 27.7 °F 28.4 °F 81% 29.83 in - East 6.9 mph - N/A   Clear
5:45 AM 33.8 °F 28.6 °F 28.4 °F 81% 29.80 in - ENE 5.8 mph - N/A   Clear
6:00 AM 34 °F - 29 °F 75% 29.83 in 9 mi ENE 6.7 mph - -   Partly Cloudy
6:15 AM 33.8 °F 28.6 °F 28.4 °F 81% 29.80 in - East 5.8 mph - N/A   Clear
6:45 AM 33.8 °F 27.0 °F 30.2 °F 87% 29.80 in - East 8.1 mph - N/A   Clear
7:00 AM 34 °F - 29 °F 77% 29.81 in 12 mi East 6.7 mph - -   Partly Cloudy
7:15 AM 35.6 °F 29.2 °F 30.2 °F 81% 29.80 in - East 8.1 mph - N/A   Clear
7:45 AM 35.6 °F 29.9 °F 30.2 °F 81% 29.80 in - East 6.9 mph - N/A   Clear
8:00 AM 35 °F - 30 °F 75% 29.80 in 19 mi East 6.7 mph - -   Partly Cloudy
8:15 AM 37.4 °F 31.4 °F 30.2 °F 75% 29.77 in - East 8.1 mph - N/A   Clear
8:45 AM 39.2 °F 33.6 °F 32.0 °F 75% 29.77 in - East 8.1 mph - N/A   Clear
9:00 AM 39 °F - 32 °F 67% 29.79 in 12 mi East 6.7 mph - -   Partly Cloudy
9:15 AM 42.8 °F 38.6 °F 33.8 °F 70% 29.77 in - East 6.9 mph - N/A   Clear
9:45 AM 46.4 °F 42.4 °F 33.8 °F 62% 29.77 in - East 8.1 mph - N/A   Clear
10:00 AM 46 °F - 34 °F 52% 29.78 in 16 mi East 8.9 mph - -   Partly Cloudy
10:15 AM 48.2 °F - 33.8 °F 58% 29.77 in - East 8.1 mph - N/A   Clear
10:45 AM 51.8 °F - 33.8 °F 50% 29.77 in - ESE 8.1 mph - N/A   Clear
11:00 AM 52 °F - 35 °F 39% 29.76 in 16 mi ESE 6.7 mph - -   Partly Cloudy
11:15 AM 53.6 °F - 35.6 °F 51% 29.74 in - ESE 9.2 mph - N/A   Clear
11:45 AM 57.2 °F - 35.6 °F 44% 29.74 in - ESE 9.2 mph - N/A   Clear
12:00 PM 57 °F - 36 °F 34% 29.73 in 19 mi ESE 8.9 mph - -   Partly Cloudy
12:15 PM 55.4 °F - 37.4 °F 51% 29.71 in - SE 11.5 mph - N/A   Clear
12:45 PM 57.2 °F - 37.4 °F 48% 29.71 in - SE 10.4 mph - N/A   Clear
1:00 PM 58 °F - 38 °F 35% 29.71 in 19 mi SE 11.2 mph - -   Partly Cloudy
1:15 PM 57.2 °F - 37.4 °F 48% 29.71 in - SE 9.2 mph - N/A   Clear
1:45 PM 57.2 °F - 37.4 °F 48% 29.71 in - SE 8.1 mph - N/A   Clear
2:00 PM 58 °F - 38 °F 36% 29.70 in 19 mi SE 8.9 mph - -   Partly Cloudy
2:15 PM 57.2 °F - 37.4 °F 48% 29.68 in - SE 9.2 mph - N/A   Clear
2:45 PM 55.4 °F - 37.4 °F 51% 29.71 in - East 6.9 mph - N/A   Clear
3:00 PM 54 °F - 38 °F 43% 29.70 in 16 mi East 6.7 mph - -   Partly Cloudy
3:15 PM 51.8 °F - 37.4 °F 58% 29.71 in - East 5.8 mph - N/A   Clear
3:45 PM 48.2 °F - 35.6 °F 62% 29.71 in - East 6.9 mph - N/A   Clear
4:00 PM 48 °F - 36 °F 52% 29.71 in 12 mi East 6.7 mph - -   Partly Cloudy
4:15 PM 48.2 °F - 35.6 °F 62% 29.71 in - East 9.2 mph - N/A   Clear
4:45 PM 46.4 °F 41.5 °F 35.6 °F 66% 29.71 in - East 10.4 mph - N/A   Clear
5:00 PM 47 °F - 35 °F 52% 29.70 in 9 mi East 11.2 mph - -   Partly Cloudy
6:00 PM 46 °F - 35 °F 53% 29.70 in - East 8.9 mph - -  
7:00 PM 45 °F - 34 °F 56% 29.71 in - East 8.9 mph - -  
8:00 PM 45 °F - 34 °F 56% 29.71 in - East 8.9 mph - -  
9:00 PM 44 °F - 34 °F 58% 29.72 in - East 6.7 mph - -  
10:00 PM 44 °F - 35 °F 59% 29.72 in - ENE 6.7 mph - -  
11:00 PM 44 °F - 35 °F 60% 29.73 in - ENE 8.9 mph - -